Ithaca, NY

6:59 PM EDT on October 16, 2017 (GMT -0400)
Tompkins County

Weather History for KITH - May, 2013

Change the Weather History Date:

Wednesday, May 22, 2013

  Actual Average Record
Temperature  
Mean Temperature 76 °F -  
Max Temperature 88 °F 67 °F 90 °F (1977)
Min Temperature 63 °F 45 °F 32 °F (1967)
Cooling Degree Days 10    
Growing Degree Days 26 (Base 50)    
Moisture  
Dew Point 63 °F    
Average Humidity 74    
Maximum Humidity 97    
Minimum Humidity 40    
Precipitation  
Precipitation 0.13 in - - ()
Sea Level Pressure  
Sea Level Pressure 29.81 in    
Wind  
Wind Speed 5 mph (South)    
Max Wind Speed 15 mph    
Max Gust Speed 24 mph    
Visibility 9 miles    
Events Fog , Rain , Thunderstorm    
Averages and records for this station are not official NWS values.
T = Trace of Precipitation, MM = Missing Value Source: NWS Daily Summary

Daily Weather History Graph

Daily Weather History Graph

Search for Another Location

Airport or City:

Trip Planner

Search our weather history database for the weather conditions in past years. The results will help you decide how hot, cold, wet, or windy it might be!

Date:

Astronomy

May. 22, 2013 Rise Set
Actual Time 5:37 AM EDT 8:28 PM EDT
Civil Twilight 5:04 AM EDT 9:01 PM EDT
Nautical Twilight 4:22 AM EDT 9:43 PM EDT
Astronomical Twilight 3:34 AM EDT 10:31 PM EDT
Moon 5:45 PM EDT (5/22) 3:43 AM EDT (5/22)
Length of Visible Light 15h 56m
Length of Day
14h 50m
Waxing Gibbous, 91% of the Moon is Illuminated
May 22
Waxing Gibbous
May 25
Full
May 31
Last Quarter
Jun 8
New
Jun 16
First Quarter

Hourly Weather History & Observations

Time (EDT) Temp. Heat Index Dew Point Humidity Pressure Visibility Wind Dir Wind Speed Gust Speed Precip Events Conditions
12:10 AM 66.2 °F - 64.4 °F 94% 29.84 in 10.0 mi East 4.6 mph - 0.00 in Thunderstorm Overcast
12:25 AM 66.2 °F - 64.4 °F 94% 29.85 in 7.0 mi SSE 4.6 mph - 0.01 in Rain Light Rain
12:56 AM 66.9 °F - 63.0 °F 87% 29.82 in 10.0 mi Variable 3.5 mph - 0.01 in Rain Light Rain
1:56 AM 65.8 °F - 63.9 °F 93% 29.84 in 10.0 mi Calm Calm - 0.01 in Rain Light Rain
2:56 AM 63.9 °F - 63.0 °F 97% 29.84 in 9.0 mi Calm Calm - 0.00 in   Partly Cloudy
3:56 AM 63.9 °F - 63.0 °F 97% 29.83 in 6.0 mi Calm Calm - N/A   Mostly Cloudy
4:56 AM 63.9 °F - 63.0 °F 97% 29.83 in 7.0 mi East 3.5 mph - 0.00 in   Mostly Cloudy
5:56 AM 63.9 °F - 61.9 °F 93% 29.82 in 7.0 mi East 3.5 mph - N/A   Clear
6:21 AM 64.4 °F - 62.6 °F 94% 29.84 in 7.0 mi ESE 3.5 mph - N/A Fog Patches of Fog
6:56 AM 65.8 °F - 63.0 °F 90% 29.83 in 10.0 mi SE 3.5 mph - N/A   Scattered Clouds
7:56 AM 68.9 °F - 63.9 °F 84% 29.83 in 10.0 mi SSE 5.8 mph - N/A   Scattered Clouds
8:56 AM 68.9 °F - 64.9 °F 87% 29.85 in 10.0 mi Calm Calm - 0.00 in   Mostly Cloudy
9:56 AM 74.8 °F - 65.8 °F 73% 29.85 in 10.0 mi SW 8.1 mph - 0.00 in   Mostly Cloudy
10:56 AM 74.8 °F - 64.9 °F 71% 29.86 in 10.0 mi West 5.8 mph - N/A   Mostly Cloudy
11:56 AM 70.0 °F - 65.8 °F 87% 29.86 in 10.0 mi SE 3.5 mph - 0.07 in   Mostly Cloudy
12:56 PM 75.9 °F - 63.9 °F 66% 29.84 in 10.0 mi South 4.6 mph - 0.00 in   Partly Cloudy
1:56 PM 79.9 °F - 66.9 °F 64% 29.81 in 10.0 mi South 8.1 mph - N/A   Partly Cloudy
2:56 PM 83.8 °F 85.1 °F 63.9 °F 51% 29.79 in 10.0 mi SW 10.4 mph - N/A   Scattered Clouds
3:56 PM 86.0 °F 87.1 °F 63.9 °F 47% 29.76 in 10.0 mi WSW 9.2 mph 17.3 mph N/A   Mostly Cloudy
4:56 PM 86.9 °F 86.5 °F 59.9 °F 40% 29.74 in 10.0 mi SW 11.5 mph - N/A   Scattered Clouds
5:56 PM 88.0 °F 87.9 °F 61.0 °F 40% 29.73 in 10.0 mi South 9.2 mph - N/A   Scattered Clouds
6:56 PM 83.8 °F 84.1 °F 61.0 °F 46% 29.73 in 10.0 mi South 6.9 mph - N/A   Scattered Clouds
7:56 PM 81.0 °F 81.6 °F 59.9 °F 49% 29.73 in 10.0 mi South 13.8 mph 18.4 mph N/A   Scattered Clouds
8:56 PM 74.8 °F - 63.9 °F 69% 29.74 in 10.0 mi South 5.8 mph - 0.04 in Rain , Thunderstorm Light Thunderstorms and Rain
9:56 PM 72.9 °F - 59.0 °F 62% 29.78 in 10.0 mi South 15.0 mph 24.2 mph 0.00 in   Scattered Clouds
10:56 PM 70.0 °F - 57.9 °F 65% 29.80 in 10.0 mi South 9.2 mph - N/A   Overcast
11:56 PM 68.0 °F - 59.0 °F 73% 29.83 in 10.0 mi South 8.1 mph 16.1 mph N/A   Overcast